Regional Weather Roundup
Issued by NWS

Home | Current Version | Previous Version | Graphics & Text | Print | Product List | Glossary On
Versions: 1 2 3 4 5 6 7 8 9 10 11 12 13 14 15 16 17 18 19 20 21 22 23 24 25 26 27 28 29 30 31 32 33 34 35 36 37 38 39 40 41 42 43 44 45 46 47 48 49 50
000
ASUS43 KLOT 241003
RWRIL

ILLINOIS REGIONAL WEATHER ROUNDUP
NATIONAL WEATHER SERVICE CHICAGO/ROMEOVILLE IL
500 AM CDT TUE APR 24 2018

NOTE: "FAIR" INDICATES FEW OR NO CLOUDS BELOW 12,000 FEET WITH NO
SIGNIFICANT WEATHER AND/OR OBSTRUCTIONS TO VISIBILITY.

* THESE STATIONS ARE NOT UNDER NWS QUALITY CONTROL. THEY ALSO MAY NOT
  REPORT WEATHER SUCH AS PRECIPITATION OR FOG.

ILZ001-002-007-009-015-016-024-241100-
NORTHWEST ILLINOIS

CITY           SKY/WX    TMP DP  RH WIND       PRES   REMARKS
MOLINE         FAIR      53  34  48 NE3       30.06S
STERLING*      FAIR      51  31  46 N7        30.06F
SAVANNA*       FAIR      48  32  53 NW5       30.08S
$$

ILZ003-004-008-010-011-017-018-241100-
NORTH CENTRAL ILLINOIS

CITY           SKY/WX    TMP DP  RH WIND       PRES   REMARKS
ROCKFORD       CLOUDY    50  28  42 N3        30.09R
FREEPORT*      FAIR      46  31  56 N3        30.09S
ROCHELLE*      CLOUDY    48  31  52 NE6       30.06F
DE KALB*       CLOUDY    49  32  52 N6        30.07S
PERU*          CLOUDY    53  38  58 NE7       30.05S
$$

ILZ005-006-012>014-019>023-241100-
NORTHEAST ILLINOIS

CITY           SKY/WX    TMP DP  RH WIND       PRES   REMARKS
CHICAGO-OHARE  CLOUDY    49  34  56 N7        30.05F
CHICAGO-MIDWAY CLOUDY    52  42  69 NE5       30.05F
AURORA         CLOUDY    50  34  54 NE5       30.04F
LANSING*       LGT RAIN  44  42  95 CALM      30.05F
JOLIET*        LGT RAIN  52  49  89 NE6       30.04F
WAUKEGAN       CLOUDY    46  35  65 E3        30.06F
DUPAGE AIRPORT CLOUDY    49  38  65 NE5       30.05S
KANKAKEE*      CLOUDY    49  48  97 NE5       30.04S FOG
WHEELING       CLOUDY    49  33  54 NE3       30.08F
MORRIS*        LGT RAIN  48  44  87 CALM      30.03F
ROMEOVILLE*    LGT RAIN  48  42  77 NE6       30.04F
NORTHERLY ISL    N/A     44  35  70 NW3         N/A
$$

LMZ740>746-241100-
SOUTHERN LAKE MICHIGAN

STATION/POSITION SKY/WX   TEMP    WIND        PRES    VSBY  WAVE
                          AIR SEA DIR/SP/G                  HT/PER
                          (F)     (DEG/KT/KT) (MB)    (MI)  (FT/S)
HARRISON CRIB              42     340/  7/  7   N/A
BURNHAM HARBOR             43     360/  5       N/A
CALUMET HARBOR             42     340/  5/  6 1017.3F
BURNS HARBOR               41        CALM     1018.3F
MICHIGAN CITY              45      30/  6/  7   N/A
ST. JOSEPH                 47 42   70/  6/  6 1018.6F         1/ 4
$$

ILZ025>027-034>036-040-047-049-050-058-095>099-241100-
WEST-CENTRAL ILLINOIS

CITY           SKY/WX    TMP DP  RH WIND       PRES   REMARKS
QUINCY         CLOUDY    54  51  90 N8        30.03S
GALESBURG*     RAIN      54  47  78 N7        30.06R
MACOMB*        CLOUDY    52  47  86 N7        30.06S
JACKSONVILLE*  CLOUDY    53  52  95 N8        30.01S FOG
PITTSFIELD*    CLOUDY    55  55  97 N6        30.03S FOG
$$

ILZ028>032-037-038-041>044-048-051>054-059>061-241100-
CENTRAL ILLINOIS

CITY           SKY/WX    TMP DP  RH WIND       PRES   REMARKS
PONTIAC        FOG       49  49  99 NE7       30.03S VSB 1
BLOOMINGTON    CLOUDY    51  50  96 NE9       30.02S FOG
DECATUR        CLOUDY    53  53 100 NE10      29.98F
PEORIA         CLOUDY    51  49  92 N5        30.04R FOG
LACON*         CLOUDY    50  44  79 N3        30.03S
LINCOLN*       CLOUDY    53  53 100 N9        30.00S FOG
SPRINGFIELD    CLOUDY    54  54 100 N8        30.00S FOG
TAYLORVILLE    CLOUDY    53  53 100 NE7       29.98S FOG
$$

ILZ033-039-045-046-055>057-062-063-241100-
EAST-CENTRAL ILLINOIS

CITY           SKY/WX    TMP DP  RH WIND       PRES   REMARKS
CHAMPAIGN      CLOUDY    52  51  97 NE12      29.99S
DANVILLE*      CLOUDY    50  50  99 NE7       29.97F
RANTOUL*       CLOUDY    53  52  99 NE8       30.00S
MATTOON        CLOUDY    52  51  97 NE9       29.96F FOG
$$

ILZ079-100>102-241100-
SOUTHWEST ILLINOIS

CITY           SKY/WX    TMP DP  RH WIND       PRES   REMARKS
CAHOKIA*       CLOUDY    56  53  90 NW10      29.97S
SPARTA*        CLOUDY    55  55 100 N7        29.96S FOG
$$

ILZ064>066-069>071-074>076-080>082-084>086-088>090-092>094-241100-
SOUTH-CENTRAL ILLINOIS

CITY           SKY/WX    TMP DP  RH WIND       PRES   REMARKS
CARBONDALE     CLOUDY    56  54  93 NW8       29.93S
CAIRO*         MOCLDY    55  55 100 NW5       29.93R FOG
EFFINGHAM*     CLOUDY    53  53 100 N3        29.97F
MARION         CLOUDY    54  54  99 N5        29.94S FOG
MT. VERNON     CLOUDY    54  54 100 N3        29.94F FOG
CENTRALIA*     CLOUDY    56  56  97 CALM      29.94S
SALEM*         CLOUDY    56  54  92 CALM      29.94F
METROPOLIS*    CLOUDY    55  54  97 CALM      29.92S
$$

ILZ067-068-072-073-078-083-087-091-241100-
SOUTHEAST ILLINOIS

CITY           SKY/WX    TMP DP  RH WIND       PRES   REMARKS
LAWRENCEVILLE  CLOUDY    54  52  93 MISG      29.95S
FLORA*         MOCLDY    54  52  93 NE5       29.95S
FAIRFIELD*     CLOUDY    53  53 100 NE5       29.92F
HARRISBURG*    CLOUDY    55  55 100 N5        29.93S FOG
ROBINSON*      CLOUDY    51  51  99 N6        29.96S
CARMI*         CLOUDY    55  55  99 N3        29.92S
$$

ABBREVIATIONS USED IN REMARKS
   TC - TEMPERATURE IN CELSIUS
  WCI - WIND CHILL INDEX
   HX - HEAT INDEX
  VSB - VISIBILITY
$$





USA.gov is the U.S. government's official web portal to all federal, state and local government web resources and services.